EW0534 Weather Reports


Display with metric or nautical units.
time (UTC)temp
F
wind
direction
speed
MPH
gust
MPH
rain 1hr
in
rain 24hr
in
rain mn
in
humidity
%
barometer
mb
20260508190525 70 257 3.0 11.0 0.00 0.00 0.00 40 1011.3
20260508190023 70 297 4.0 11.0 0.00 0.00 0.00 42 1011.4
20260508185523 70 200 3.0 9.0 0.00 0.00 0.00 42 1011.5
20260508185022 70 330 4.0 9.0 0.00 0.00 0.00 39 1011.5
20260508184522 71 220 4.0 11.0 0.00 0.00 0.00 45 1011.6
20260508184021 70 207 3.0 11.0 0.00 0.00 0.00 42 1011.7
20260508183523 71 260 4.0 20.0 0.00 0.00 0.00 42 1011.8
20260508183020 70 185 7.0 20.0 0.00 0.00 0.00 41 1011.8
20260508182521 69 292 4.0 12.0 0.00 0.00 0.00 48 1012.0
20260508182018 68 298 2.0 11.0 0.00 0.00 0.00 44 1012.1
20260508181520 68 238 3.0 11.0 0.00 0.00 0.00 44 1012.2
20260508181017 68 229 2.0 7.0 0.00 0.00 0.00 46 1012.2
20260508180516 67 214 2.0 8.0 0.00 0.00 0.00 44 1012.3
20260508180019 67 253 3.0 9.0 0.00 0.00 0.00 44 1012.4
20260508175515 67 236 3.0 12.0 0.00 0.00 0.00 45 1012.5
20260508175017 67 264 6.0 12.0 0.00 0.00 0.00 44 1012.6
20260508174514 67 243 5.0 14.0 0.00 0.00 0.00 42 1012.7
20260508174013 68 159 4.0 15.0 0.00 0.00 0.00 44 1012.8
20260508173512 68 255 7.0 16.0 0.00 0.00 0.00 43 1012.8
20260508173012 69 161 8.0 16.0 0.00 0.00 0.00 45 1012.9
20260508172510 69 256 2.0 14.0 0.00 0.00 0.00 45 1013.0
20260508172010 68 215 5.0 14.0 0.00 0.00 0.00 44 1013.1
20260508171521 68 231 6.0 13.0 0.00 0.00 0.00 44 1013.3
20260508171007 70 292 4.0 11.0 0.00 0.00 0.00 47 1013.4
20260508170508 69 233 3.0 9.0 0.00 0.00 0.00 49 1013.5
20260508170006 68 307 3.0 11.0 0.00 0.00 0.00 46 1013.5
20260508165505 68 225 3.0 11.0 0.00 0.00 0.00 48 1013.4
20260508165006 67 282 3.0 8.0 0.00 0.00 0.00 48 1013.5
20260508164503 68 284 3.0 11.0 0.00 0.00 0.00 46 1013.6
20260508164002 68 232 3.0 11.0 0.00 0.00 0.00 48 1013.8
20260508163501 68 188 5.0 10.0 0.00 0.00 0.00 46 1013.8
20260508163111 67 279 3.0 11.0 0.00 0.00 0.00 47 1013.9
20260508162559 67 273 3.0 14.0 0.00 0.00 0.00 47 1014.0
20260508162101 67 182 4.0 14.0 0.00 0.00 0.00 48 1014.1
20260508161559 67 230 4.0 11.0 0.00 0.00 0.00 47 1014.2
20260508161102 67 273 5.0 9.0 0.00 0.00 0.00 47 1014.2
20260508160558 66 197 2.0 12.0 0.00 0.00 0.00 48 1014.3
20260508160055 66 260 3.0 12.0 0.00 0.00 0.00 50 1014.2
20260508155554 67 264 3.0 10.0 0.00 0.00 0.00 52 1014.3
20260508155053 66 253 3.0 10.0 0.00 0.00 0.00 54 1014.3
20260508154552 65 230 4.0 11.0 0.00 0.00 0.00 49 1014.4
20260508154049 65 275 5.0 11.0 0.00 0.00 0.00 51 1014.5
20260508153548 64 238 3.0 11.0 0.00 0.00 0.00 49 1014.6
20260508153047 64 228 4.0 11.0 0.00 0.00 0.00 50 1014.7
20260508152545 64 249 2.0 9.0 0.00 0.00 0.00 53 1014.8
20260508152043 64 163 3.0 9.0 0.00 0.00 0.00 53 1014.8
20260508151542 63 178 4.0 10.0 0.00 0.00 0.00 51 1014.8
20260508151041 63 279 3.0 10.0 0.00 0.00 0.00 52 1014.9
20260508150539 62 273 4.0 10.0 0.00 0.00 0.00 51 1014.9
20260508150038 62 218 5.0 9.0 0.00 0.00 0.00 51 1015.1
20260508145537 62 255 3.0 13.0 0.00 0.00 0.00 53 1015.0
20260508145037 62 219 4.0 13.0 0.00 0.00 0.00 51 1015.0
20260508144535 61 282 5.0 14.0 0.00 0.00 0.00 52 1015.1
20260508144036 62 229 3.0 14.0 0.00 0.00 0.00 53 1015.1
20260508143534 61 285 3.0 8.0 0.00 0.00 0.00 54 1015.1
20260508143045 61 288 2.0 10.0 0.00 0.00 0.00 54 1015.1
20260508142530 60 290 5.0 10.0 0.00 0.00 0.00 52 1015.2
20260508142032 60 262 1.0 12.0 0.00 0.00 0.00 55 1015.2
20260508141528 60 254 4.0 12.0 0.00 0.00 0.00 54 1015.2
20260508141027 59 215 3.0 12.0 0.00 0.00 0.00 53 1015.3
20260508140526 59 232 4.0 12.0 0.00 0.00 0.00 54 1015.3
20260508140034 59 228 3.0 8.0 0.00 0.00 0.00 55 1015.3
20260508135523 58 246 2.0 9.0 0.00 0.00 0.00 58 1015.4
20260508135020 58 297 4.0 9.0 0.00 0.00 0.00 59 1015.5
20260508134541 57 267 3.0 9.0 0.00 0.00 0.00 60 1015.5
20260508134035 56 215 2.0 8.0 0.00 0.00 0.00 63 1015.5
20260508133533 55 250 2.0 6.0 0.00 0.00 0.00 63 1015.5
20260508133035 55 181 2.0 8.0 0.00 0.00 0.00 66 1015.5
20260508132530 54 214 2.0 8.0 0.00 0.00 0.00 66 1015.5
20260508132031 53 188 1.0 5.0 0.00 0.00 0.00 69 1015.4
20260508131528 51 203 0.0 6.0 0.00 0.00 0.00 69 1015.5
20260508131027 51 229 2.0 6.0 0.00 0.00 0.00 69 1015.5
20260508130527 51 205 1.0 6.0 0.00 0.00 0.00 70 1015.4
20260508130034 51 190 2.0 6.0 0.00 0.00 0.00 71 1015.4
20260508125528 50 164 1.0 7.0 0.00 0.00 0.00 70 1015.4
20260508125024 50 162 2.0 6.0 0.00 0.00 0.00 70 1015.5
20260508124532 50 232 2.0 5.0 0.00 0.00 0.00 70 1015.4
20260508124022 50 179 2.0 7.0 0.00 0.00 0.00 71 1015.4
20260508123521 50 203 1.0 7.0 0.00 0.00 0.00 71 1015.4
20260508123028 49 178 1.0 6.0 0.00 0.00 0.00 73 1015.4
20260508122519 49 205 1.0 5.0 0.00 0.00 0.00 74 1015.5
20260508122018 48 205 0.0 5.0 0.00 0.00 0.00 74 1015.4
20260508121517 47 217 1.0 4.0 0.00 0.00 0.00 74 1015.5
20260508121017 47 193 0.0 4.0 0.00 0.00 0.00 75 1015.4
20260508120516 47 192 1.0 7.0 0.00 0.00 0.00 76 1015.3
20260508120015 47 259 3.0 7.0 0.00 0.00 0.00 75 1015.3
20260508115514 47 186 2.0 4.0 0.00 0.00 0.00 76 1015.2
20260508115012 46 188 1.0 4.0 0.00 0.00 0.00 75 1015.2
20260508114511 46 217 0.0 4.0 0.00 0.00 0.00 76 1015.1
20260508114010 46 186 0.0 6.0 0.00 0.00 0.00 76 1015.1
20260508113509 46 183 1.0 5.0 0.00 0.00 0.00 76 1015.1
20260508113012 46 194 1.0 5.0 0.00 0.00 0.00 77 1015.1
20260508112507 45 194 1.0 5.0 0.00 0.00 0.00 78 1015.0
20260508112006 45 206 0.0 4.0 0.00 0.00 0.00 78 1015.0
20260508111505 45 198 0.0 4.0 0.00 0.00 0.00 79 1015.0
20260508111006 45 196 0.0 4.0 0.00 0.00 0.00 80 1015.0
20260508110502 44 171 1.0 4.0 0.00 0.00 0.00 81 1015.0
20260508110001 43 188 0.0 3.0 0.00 0.00 0.00 83 1015.0
20260508105502 43 229 0.0 0.0 0.00 0.00 0.00 84 1015.0
20260508105001 43 229 0.0 0.0 0.00 0.00 0.00 85 1014.9
20260508104605 42 229 0.0 1.0 0.00 0.00 0.00 85 1014.9
20260508104059 42 229 0.0 3.0 0.00 0.00 0.00 87 1015.0
20260508103559 42 229 0.0 3.0 0.00 0.00 0.00 88 1014.9
20260508103059 41 229 0.0 1.0 0.00 0.00 0.00 89 1014.8
20260508102558 41 229 0.0 1.0 0.00 0.00 0.00 90 1014.8
20260508102101 41 229 0.0 1.0 0.00 0.00 0.00 91 1014.9
20260508101559 41 229 0.0 1.0 0.00 0.00 0.00 91 1014.8
20260508101058 40 229 0.0 1.0 0.00 0.00 0.00 91 1014.8
20260508100601 40 229 0.0 0.0 0.00 0.00 0.00 90 1014.8
20260508095557 40 229 0.0 0.0 0.00 0.00 0.00 90 1014.7
20260508095057 40 229 0.0 0.0 0.00 0.00 0.00 90 1014.8
20260508094603 40 229 0.0 0.0 0.00 0.00 0.00 90 1014.7
20260508094056 40 229 0.0 0.0 0.00 0.00 0.00 90 1014.8
20260508093556 40 229 0.0 0.0 0.00 0.00 0.00 90 1014.8
20260508093058 40 229 0.0 0.0 0.00 0.00 0.00 90 1014.8
20260508092555 40 229 0.0 0.0 0.00 0.00 0.00 90 1014.8
20260508092055 40 229 0.0 0.0 0.00 0.00 0.00 89 1014.8
20260508091605 40 229 0.0 0.0 0.00 0.00 0.00 89 1014.9
20260508091056 40 229 0.0 0.0 0.00 0.00 0.00 89 1014.8
20260508090554 40 229 0.0 0.0 0.00 0.00 0.00 89 1014.8
20260508090108 40 229 0.0 0.0 0.00 0.00 0.00 89 1014.7
20260508085553 40 229 0.0 0.0 0.00 0.00 0.00 89 1014.7
20260508085053 40 229 0.0 0.0 0.00 0.00 0.00 88 1014.6
20260508084553 40 229 0.0 0.0 0.00 0.00 0.00 88 1014.5
20260508084053 40 229 0.0 0.0 0.00 0.00 0.00 88 1014.6
20260508083552 41 229 0.0 0.0 0.00 0.00 0.00 87 1014.6
20260508083051 41 229 0.0 0.0 0.00 0.00 0.00 87 1014.7
20260508082552 41 229 0.0 0.0 0.00 0.00 0.00 87 1014.6
20260508082051 41 229 0.0 0.0 0.00 0.00 0.00 87 1014.6
20260508081602 41 229 0.0 0.0 0.00 0.00 0.00 87 1014.6
20260508081049 41 229 0.0 0.0 0.00 0.00 0.00 86 1014.7
20260508080549 41 229 0.0 0.0 0.00 0.00 0.00 86 1014.7
20260508080051 41 229 0.0 0.0 0.00 0.00 0.00 86 1014.5
20260508075548 42 229 0.0 0.0 0.00 0.00 0.00 86 1014.5
20260508075047 42 229 0.0 0.0 0.00 0.00 0.00 86 1014.5
20260508074548 42 229 0.0 0.0 0.00 0.00 0.00 86 1014.6
20260508074050 42 229 0.0 0.0 0.00 0.00 0.00 85 1014.6
20260508073545 42 229 0.0 0.0 0.00 0.00 0.00 85 1014.6
20260508073051 43 229 0.0 0.0 0.00 0.00 0.00 85 1014.5
20260508072544 43 229 0.0 0.0 0.00 0.00 0.00 85 1014.5
20260508072044 43 229 0.0 0.0 0.00 0.00 0.00 85 1014.5
20260508071555 43 229 0.0 0.0 0.00 0.00 0.00 84 1014.7
20260508071042 43 229 0.0 0.0 0.00 0.00 0.00 83 1014.7
20260508070542 43 229 0.0 0.0 0.00 0.00 0.00 82 1014.8
20260508070053 43 229 0.0 0.0 0.00 0.00 0.00 82 1014.8
20260508065544 44 229 0.0 0.0 0.00 0.00 0.00 82 1014.8
20260508065040 44 229 0.0 0.0 0.00 0.00 0.00 81 1015.0
20260508064543 44 229 0.0 0.0 0.00 0.00 0.00 81 1015.0
20260508064040 44 229 0.0 0.0 0.00 0.00 0.00 80 1015.1
20260508063540 43 229 0.0 0.0 0.00 0.00 0.00 80 1015.0
20260508063039 43 229 0.0 0.0 0.00 0.00 0.00 80 1015.0
20260508062539 43 229 0.0 0.0 0.00 0.00 0.00 80 1015.1
20260508062038 43 229 0.0 0.0 0.00 0.00 0.00 81 1015.1
20260508061538 43 229 0.0 0.0 0.00 0.00 0.00 82 1015.2
20260508061038 43 229 0.0 2.0 0.00 0.00 0.00 82 1015.2
20260508060537 43 229 0.0 2.0 0.00 0.00 0.00 83 1015.2
20260508060039 42 298 0.0 0.0 0.00 0.00 0.00 84 1015.2
20260508055541 42 298 0.0 0.0 0.00 0.00 0.00 84 1015.2
20260508055037 42 298 0.0 0.0 0.00 0.00 0.00 85 1015.2
20260508054542 42 298 0.0 0.0 0.00 0.00 0.00 85 1015.2
20260508054035 43 298 0.0 0.0 0.00 0.00 0.00 86 1015.2
20260508053539 43 298 0.0 0.0 0.00 0.00 0.00 86 1015.1
20260508053041 43 298 0.0 0.0 0.00 0.00 0.00 86 1015.1
20260508052535 43 298 0.0 0.0 0.00 0.00 0.00 86 1015.2
20260508052034 43 298 0.0 0.0 0.00 0.00 0.00 86 1015.1
20260508051539 43 298 0.0 0.0 0.00 0.00 0.00 86 1015.0
20260508051034 43 298 0.0 0.0 0.00 0.00 0.00 85 1015.0
20260508050535 43 298 0.0 0.0 0.00 0.00 0.00 85 1015.1
20260508050032 43 298 0.0 0.0 0.00 0.00 0.00 85 1015.1
20260508045533 43 298 0.0 0.0 0.00 0.00 0.00 85 1015.1
20260508045033 43 298 0.0 0.0 0.00 0.00 0.00 86 1015.1
20260508044533 43 298 0.0 0.0 0.00 0.00 0.00 86 1015.1
20260508044033 43 298 0.0 0.0 0.00 0.00 0.00 86 1015.1
20260508043530 43 298 0.0 0.0 0.00 0.00 0.00 86 1015.0
20260508043031 43 298 0.0 0.0 0.00 0.00 0.00 86 1014.9
20260508042530 43 298 0.0 0.0 0.00 0.00 0.00 87 1015.0
20260508042031 44 298 0.0 0.0 0.00 0.00 0.00 86 1015.0
20260508041529 44 298 0.0 0.0 0.00 0.00 0.00 86 1015.0
20260508041030 44 298 0.0 0.0 0.00 0.00 0.00 86 1015.0
20260508040529 43 298 0.0 0.0 0.00 0.00 0.00 86 1014.9
20260508040031 43 298 0.0 2.0 0.00 0.00 0.00 85 1014.9
20260508035527 43 298 0.0 2.0 0.00 0.00 0.00 86 1015.1
20260508035027 43 298 0.0 0.0 0.00 0.00 0.00 86 1015.1
20260508034532 43 298 0.0 0.0 0.00 0.00 0.00 86 1015.0
20260508034026 43 298 0.0 0.0 0.00 0.00 0.00 86 1015.0
20260508033526 43 298 0.0 0.0 0.00 0.00 0.00 86 1014.9
20260508033026 43 298 0.0 0.0 0.00 0.00 0.00 86 1014.9
20260508032526 43 298 0.0 0.0 0.00 0.00 0.00 86 1015.0
20260508032028 43 298 0.0 0.0 0.00 0.00 0.00 87 1015.0
20260508031527 43 298 0.0 0.0 0.00 0.00 0.00 87 1015.0
20260508031026 43 298 0.0 0.0 0.00 0.00 0.00 86 1015.1
20260508030526 44 298 0.0 0.0 0.00 0.00 0.00 86 1015.0
20260508030028 44 298 0.0 0.0 0.00 0.00 0.00 85 1015.0
20260508025528 44 298 0.0 0.0 0.00 0.00 0.00 85 1015.0
20260508025025 44 298 0.0 0.0 0.00 0.00 0.00 84 1014.8
20260508024528 45 298 0.0 0.0 0.00 0.00 0.00 84 1014.9
20260508024025 45 298 0.0 0.0 0.00 0.00 0.00 83 1015.0
20260508023525 45 298 0.0 0.0 0.00 0.00 0.00 82 1014.9
20260508023029 46 298 0.0 0.0 0.00 0.00 0.00 81 1014.8
20260508022524 46 298 0.0 0.0 0.00 0.00 0.00 80 1014.8
20260508022024 46 298 0.0 0.0 0.00 0.00 0.00 80 1014.9
20260508021524 46 298 0.0 0.0 0.00 0.00 0.00 80 1014.9
20260508021024 46 298 0.0 0.0 0.00 0.00 0.00 80 1014.9
20260508020525 46 298 0.0 0.0 0.00 0.00 0.00 80 1015.0
20260508020024 46 298 0.0 0.0 0.00 0.00 0.00 80 1014.9
20260508015524 47 298 0.0 0.0 0.00 0.00 0.00 80 1014.9
20260508015024 47 298 0.0 0.0 0.00 0.00 0.00 79 1015.0
20260508014524 47 298 0.0 0.0 0.00 0.00 0.00 79 1014.9
20260508014024 48 298 0.0 0.0 0.00 0.00 0.00 78 1014.8
20260508013523 48 298 0.0 0.0 0.00 0.00 0.00 76 1014.7
20260508013023 48 298 0.0 0.0 0.00 0.00 0.00 74 1014.7
20260508012525 48 298 0.0 0.0 0.00 0.00 0.00 70 1014.7
20260508012023 48 298 0.0 0.0 0.00 0.00 0.00 67 1014.6
20260508011522 48 298 0.0 0.0 0.00 0.00 0.00 69 1014.7
20260508011022 49 298 0.0 0.0 0.00 0.00 0.00 68 1014.7
20260508010523 49 298 0.0 0.0 0.00 0.00 0.00 66 1014.7
20260508010027 49 298 0.0 0.0 0.00 0.00 0.00 63 1014.5
20260508005524 50 298 0.0 0.0 0.00 0.00 0.00 65 1014.5
20260508005021 50 298 0.0 0.0 0.00 0.00 0.00 66 1014.5
20260508004521 51 298 0.0 0.0 0.00 0.00 0.00 64 1014.5
20260508004023 52 298 0.0 0.0 0.00 0.00 0.00 62 1014.4
20260508003521 52 298 0.0 0.0 0.00 0.00 0.00 59 1014.5
20260508003023 53 298 0.0 0.0 0.00 0.00 0.00 57 1014.3
20260508002521 53 298 0.0 0.0 0.00 0.00 0.00 58 1014.4
20260508002021 54 298 0.0 0.0 0.00 0.00 0.00 56 1014.3
20260508001539 54 298 0.0 0.0 0.00 0.00 0.00 60 1014.3
20260508001021 54 298 0.0 1.0 0.00 0.00 0.00 59 1014.3
20260508000520 55 298 0.0 1.0 0.00 0.00 0.00 56 1014.3
20260508000021 55 298 0.0 1.0 0.00 0.00 0.00 55 1014.3
20260507235523 56 314 0.0 1.0 0.00 0.00 0.00 52 1014.2
20260507235024 56 325 0.0 0.0 0.00 0.00 0.00 49 1014.1
20260507234520 57 325 0.0 1.0 0.00 0.00 0.00 52 1014.1
20260507234020 57 324 0.0 1.0 0.00 0.00 0.00 47 1014.1
20260507233520 57 323 0.0 2.0 0.00 0.00 0.00 50 1014.0
20260507233025 57 323 0.0 2.0 0.00 0.00 0.00 46 1014.0
20260507232519 58 344 0.0 1.0 0.00 0.00 0.00 48 1013.9
20260507232019 58 344 0.0 4.0 0.00 0.00 0.00 51 1014.0
20260507231522 58 344 1.0 4.0 0.00 0.00 0.00 48 1014.1
20260507231021 58 245 0.0 2.0 0.00 0.00 0.00 48 1014.1
20260507230518 59 246 0.0 2.0 0.00 0.00 0.00 42 1014.1
20260507230028 59 237 0.0 2.0 0.00 0.00 0.00 43 1014.2
20260507225519 59 234 0.0 2.0 0.00 0.00 0.00 44 1014.2
20260507225021 59 211 0.0 2.0 0.00 0.00 0.00 42 1014.1
20260507224528 60 327 0.0 2.0 0.00 0.00 0.00 43 1014.1
20260507224017 61 327 0.0 5.0 0.00 0.00 0.00 39 1014.1
20260507223520 61 328 1.0 5.0 0.00 0.00 0.00 41 1014.1
20260507223018 61 313 0.0 3.0 0.00 0.00 0.00 45 1014.1
20260507222518 61 327 1.0 3.0 0.00 0.00 0.00 44 1014.1
20260507222017 61 346 0.0 3.0 0.00 0.00 0.00 41 1014.2
20260507221524 61 339 0.0 4.0 0.00 0.00 0.00 43 1014.2
20260507221017 62 265 1.0 5.0 0.00 0.00 0.00 41 1014.2
20260507220518 62 250 1.0 4.0 0.00 0.00 0.00 43 1014.2
20260507220019 62 57 1.0 4.0 0.00 0.00 0.00 40 1014.3
20260507215516 62 5 0.0 6.0 0.00 0.00 0.00 42 1014.2
20260507215020 63 36 1.0 6.0 0.00 0.00 0.00 43 1014.2
20260507214515 62 332 0.0 4.0 0.00 0.00 0.00 44 1014.2
20260507214015 62 332 1.0 4.0 0.00 0.00 0.00 46 1014.2
20260507213515 62 73 1.0 5.0 0.00 0.00 0.00 42 1014.2
20260507213015 61 339 1.0 5.0 0.00 0.00 0.00 44 1014.2
20260507212516 62 33 1.0 4.0 0.00 0.00 0.00 45 1014.2
20260507212017 62 280 0.0 5.0 0.00 0.00 0.00 44 1014.2
20260507211528 63 28 2.0 5.0 0.00 0.00 0.00 43 1014.1
20260507211015 62 244 1.0 5.0 0.00 0.00 0.00 44 1014.0
20260507210514 62 240 0.0 4.0 0.00 0.00 0.00 43 1014.1
20260507210015 62 282 0.0 6.0 0.00 0.00 0.00 43 1014.1
20260507205516 62 5 2.0 6.0 0.00 0.00 0.00 43 1014.0
20260507205014 62 247 1.0 5.0 0.00 0.00 0.00 43 1014.1
20260507204512 63 290 1.0 4.0 0.00 0.00 0.00 44 1014.0
20260507204013 62 329 1.0 4.0 0.00 0.00 0.00 40 1013.9
20260507203512 62 341 2.0 4.0 0.00 0.00 0.00 43 1014.0
20260507203012 61 77 0.0 6.0 0.00 0.00 0.00 42 1013.9
20260507202511 62 253 1.0 9.0 0.00 0.00 0.00 46 1013.9
20260507202011 63 273 1.0 9.0 0.00 0.00 0.00 45 1013.9
20260507201516 62 51 0.0 6.0 0.00 0.00 0.00 48 1014.0
20260507201011 62 355 2.0 6.0 0.00 0.00 0.00 42 1013.9
20260507200510 61 285 2.0 5.0 0.00 0.00 0.00 43 1014.0
20260507200009 61 94 2.0 7.0 0.00 0.00 0.00 45 1014.1
20260507195509 62 325 1.0 7.0 0.00 0.00 0.00 44 1014.2
20260507195009 62 266 1.0 5.0 0.00 0.00 0.00 46 1014.1
20260507194509 62 244 1.0 5.0 0.00 0.00 0.00 44 1014.1
20260507194008 62 254 2.0 5.0 0.00 0.00 0.00 41 1014.2
20260507193508 62 327 1.0 4.0 0.00 0.00 0.00 48 1014.2
20260507193008 61 298 2.0 9.0 0.00 0.00 0.00 48 1014.2
20260507192506 62 81 2.0 9.0 0.00 0.00 0.00 45 1014.2
20260507192006 61 17 1.0 6.0 0.00 0.00 0.00 43 1014.2
20260507191506 61 327 2.0 6.0 0.00 0.00 0.00 44 1014.3
20260507191005 62 292 1.0 5.0 0.00 0.00 0.00 47 1014.3